Miquelon Airport


Codes: LFVM/MQC
Name: Miquelon Airport
City: Miquelon
Country: Saint Pierre and Miquelon
Elevation: 10 ft.
Wikipedia:

Photos at Miquelon Airport


   Photos courtesy of SpottingLog. You can add your own sightings and photos by signing up for a free trial today.



No photos found.

Weather at Miquelon Airport


Time (UTC)DescriptionTempratureWindCloud coverageVisibilityPressureHumidity
13-Jun-2024 03:00Light Rain10°C20 mph, SE100%68m1011hPa100%
13-Jun-2024 06:00Light Rain9°C25 mph, SW100%48m1011hPa99%
13-Jun-2024 09:00Overcast Clouds9°C25 mph, SW100%10000m1012hPa96%
13-Jun-2024 12:00Broken Clouds9°C13 mph, SW62%10000m1014hPa97%
13-Jun-2024 15:00Broken Clouds8°C20 mph, SW81%141m1016hPa98%
13-Jun-2024 18:00Overcast Clouds8°C20 mph, SW91%10000m1016hPa98%
13-Jun-2024 21:00Overcast Clouds9°C13 mph, SW100%454m1016hPa98%
14-Jun-2024 00:00Overcast Clouds8°C9 mph, N98%0m1017hPa99%
14-Jun-2024 03:00Overcast Clouds8°C9 mph, S85%10000m1017hPa97%
14-Jun-2024 06:00Scattered Clouds9°C9 mph, SW44%10000m1017hPa95%
14-Jun-2024 09:00Clear Sky9°C9 mph, S0%10000m1017hPa95%
14-Jun-2024 12:00Few Clouds9°C9 mph, S13%10000m1017hPa94%
14-Jun-2024 15:00Broken Clouds9°C9 mph, S75%10000m1017hPa93%
14-Jun-2024 18:00Broken Clouds10°C11 mph, SW67%10000m1016hPa91%
14-Jun-2024 21:00Overcast Clouds10°C11 mph, SW99%10000m1016hPa94%
15-Jun-2024 00:00Overcast Clouds10°C16 mph, S99%10000m1016hPa97%
15-Jun-2024 03:00Overcast Clouds9°C18 mph, SW86%334m1015hPa99%
15-Jun-2024 06:00Overcast Clouds9°C18 mph, N94%0m1015hPa99%
15-Jun-2024 09:00Overcast Clouds8°C16 mph, N100%0m1014hPa100%
15-Jun-2024 12:00Overcast Clouds8°C13 mph, S100%545m1014hPa99%
15-Jun-2024 15:00Overcast Clouds8°C16 mph, SE100%276m1012hPa99%
15-Jun-2024 18:00Heavy Intensity Rain9°C20 mph, SE100%298m1007hPa99%
15-Jun-2024 21:00Moderate Rain10°C22 mph, S100%157m1005hPa100%
16-Jun-2024 00:00Light Rain9°C11 mph, SW100%89m1005hPa99%
16-Jun-2024 03:00Overcast Clouds9°C16 mph, N100%0m1005hPa99%
16-Jun-2024 06:00Overcast Clouds9°C16 mph, W100%10000m1006hPa94%
16-Jun-2024 09:00Overcast Clouds9°C18 mph, NW100%10000m1007hPa89%
16-Jun-2024 12:00Overcast Clouds9°C18 mph, W92%10000m1009hPa90%
16-Jun-2024 15:00Clear Sky9°C13 mph, W7%10000m1009hPa90%
16-Jun-2024 18:00Few Clouds10°C20 mph, W17%10000m1009hPa82%
16-Jun-2024 21:00Broken Clouds11°C25 mph, W61%10000m1011hPa74%
17-Jun-2024 00:00Scattered Clouds10°C22 mph, NW30%10000m1013hPa76%
17-Jun-2024 03:00Clear Sky9°C16 mph, W1%10000m1015hPa82%
17-Jun-2024 06:00Clear Sky9°C16 mph, W10%10000m1016hPa89%
17-Jun-2024 09:00Few Clouds9°C20 mph, W22%10000m1017hPa84%
17-Jun-2024 12:00Broken Clouds10°C16 mph, SW61%10000m1018hPa84%
17-Jun-2024 15:00Light Rain10°C11 mph, SW100%10000m1018hPa89%
17-Jun-2024 18:00Overcast Clouds10°C13 mph, SW99%10000m1018hPa86%
17-Jun-2024 21:00Overcast Clouds10°C13 mph, SW100%10000m1018hPa86%
18-Jun-2024 00:00Overcast Clouds10°C16 mph, SW92%10000m1019hPa85%